Tracking 29487 objects as of 11-Sep-2024
HD Live streaming from Space Station
objects crossing your sky now

FENGYUN 1C DEB

Track FENGYUN 1C DEB now!
10-day predictions


NORAD ID: 30492
Int'l Code: 1999-025AHE
Perigee: 700.0 km
Apogee: 895.3 km
Inclination: 102.3 °
Period: 100.7 minutes
Semi major axis: 7168 km
RCS: 0.0164 m2 (small)
Launch date: May 10, 1999
Source: People's Republic of China (PRC)
Launch site: Taiyaun Space Center, China (TSC)

Note: This is SATELLITE DEBRIS
Your satellite tracking list
Your tracking list is empty




NASA's NSSDC Master Catalog

Two Line Element Set (TLE):
1 30492U 99025AHE 24254.74864895  .00057315  00000-0  19792-1 0  9991
2 30492 102.3381  64.1148 0136261 179.4411 180.6933 14.30364883902919
Source of the keplerian elements: AFSPC